COSMOS 1383

导读 | 豆包AI

COSMOS 1383是由独联体(CIS)发射的一颗人造卫星,于1982年6月29日08:00发射升空,它隶属于苏联/俄罗斯"宇宙"系列卫星,该系列卫星涵盖多种航天科研与技术试验任务,作为冷战时期的航天发射成果,它为独联体后续航天技术发展积累了轨道运行、空间环境探测等重要数据,在世界早期航天探索进程中留下了独特印记。

基本信息
目录编号:
13301
目录名称:
COSMOS 1383
国际标识:
1982-066A
轨道中心:
EARTH
卫星名称:
COSMOS 1383
卫星全名:
--
卫星状态:
在轨 (已飞行15963 天)
发射日期:
1982-06-29 UTC
国别 :
俄罗斯(独联体) (CIS)
星等 :
--
轨道信息
数据来源 国际轨道数据 AOE轨道数据
星历时间 2026-03-13T08:40:36+0800
9小时前
查看轨道信息
2026-03-10T23:00:00+0800
2天前
查看轨道信息
半长轴 7381.664km 7381.664km
偏心率 0.0027681 0.0027609
轨道倾角 82.927° 82.928°
近地点辐角 160.423° 166.884°
升交点赤经 84.592° 86.358°
平近点角 229.069° 266.207°
近地点 983.093km 983.146km
远地点 1023.961km 1023.908km
周期 105.194分钟 105.194分钟
每日圈数 13.68899 13.68899
详细信息
使用方式:
暂无
2D轨道图
3D轨道图
轨道高度分析图
轨道倾角分析图
轨道综合分析图
查看轨道综合分析图